www.pogodaiklimat.ru

Погода и климат >> Архив погоды >> Россия >> Краснодарский край >> Сочи аэропорт (Адлер)


ПОГОДА в Сочи аэропорт (Адлере)

  • Прогноз погоды в Сочи аэропорт (Адлере)
  • Монитор погоды в Сочи аэропорт (Адлере)

АРХИВ ПОГОДЫ в Сочи аэропорт (Адлере)

Время (UTC), дата Ветер
(напр.,м/с)
 
Видим.   Явления Облачность Т
(С)
Тd
(С)
f
(%)
Тe
(С)
Тes
(С)
Комфортность P
(гПа)
Po
(гПа)
Тmin
(С)
Tmax
(С)
R
(мм)
R24
(мм)
S
(см)
06 9.01 З 4 4000 м слаб. ливневой дождь 10/10 330 м
[Cb cap]
+4.6 +3.6 93 0 0 1009.2 1007.3 +3.7
09 9.01 СЗ 5-15
{15}
10 км {ливн. осадки} 10/10 800 м
[Cb cap]
+5.1 +0.1 70 +1 +1 1013.5 1011.6
12 9.01 СЗ 6 10 км {ливн. осадки} 10/3 600 м
[Cb cap Ac und]
+5.3 -4.0 51 +1 +1 1017.3 1015.4
15 9.01 СВ 1 4000 м 3/0
[Ac trans]
+4.2 -3.3 58 +3 +3 1019.8 1017.9 +7.7 7
18 9.01 СВ 3 4000 м 3/0
[Ac trans]
0.0 -1.8 88 -5 -5 1022.0 1020.1
21 9.01 СВ 5 4000 м 3/0
[Ac trans]
+0.4 -1.3 88 -6 -6 1022.7 1020.8
00 10.01 СВ 6 4000 м 5/0
[Ac trans]
+0.6 -2.0 83 -6 -6 1023.7 1021.8
03 10.01 В 6 4000 м ясно +0.7 -3.9 71 -5 -5 1023.1 1021.2 -0.2
06 10.01 В 7 20 км 10/0
[Ci fib]
+1.6 -4.2 65 -5 -4 1023.3 1021.4
09 10.01 В 3 20 км 10/0
[Ci fib]
+7.9 -4.1 42 +6 +8 1022.7 1020.8
12 10.01 ЮВ 4
{10}
20 км 10/0
[Ac trans Ci fib]
+9.7 -0.2 50 +7 +8 1020.7 1018.9
15 10.01 ЮВ 3
{10}
4000 м 10/0
[Ac trans Ci fib]
+7.9 -1.2 53 +6 +6 1021.2 1019.3 +10.4
18 10.01 В 3 4000 м 10/0
[Ac und]
+6.2 +0.3 66 +3 +3 1020.5 1018.6
21 10.01 СВ 5 4000 м 9/0
[Ac trans]
+5.8 -0.5 64 +2 +2 1020.8 1018.9
00 11.01 В 3 4000 м 10/0
[Ac und]
+6.3 +0.1 64 +4 +4 1021.0 1019.1
03 11.01 СВ 3
{10}
4000 м 10/0
[Ac und]
+7.1 -0.9 57 +5 +5 1020.0 1018.1 +5.1
06 11.01 СВ 4
{10}
20 км 9/0
[Ac und]
+8.1 -0.9 53 +5 +6 1020.6 1018.8
09 11.01 В 4 20 км 10/0
[Ac trans Ci fib]
+12.9 -2.7 34 +12 +13 1019.6 1017.8
12 11.01 ЮВ 5
{10}
20 км 10/0
[Ac trans Cs]
+12.9 +3.0 51 +11 +12 1018.0 1016.2
15 11.01 В 3
{11}
4000 м 10/0
[Ac trans Cs]
+11.7 -0.2 44 +10 +10 1017.8 1016.0 +14.2
18 11.01 В 5
{11}
4000 м 10/0
[Ac trans]
+12.6 -0.7 40 +11 +11 1017.1 1015.3
21 11.01 В 3 4000 м 10/0
[Ac trans]
+9.9 +0.6 52 +8 +8 1015.4 1013.6
00 12.01 Ю 4 4000 м 10/0
[Ac trans]
+13.3 +1.7 45 +12 +12 1015.1 1013.3
03 12.01 ЮВ 2 4000 м 10/0
[Ac und]
+11.7 +3.4 57 +11 +11 1015.3 1013.5 +9.4
06 12.01 В 4 10 км слаб. ливневой дождь 10/10 1000 м
[Cb cap]
+7.7 +5.9 88 +4 +4 1016.4 1014.6 +7.3
09 12.01 СВ 2 10 км слаб. ливневой дождь 10/10 870 м
[Cb cap]
+8.3 +6.5 88 +6 +6 1015.4 1013.6
12 12.01 СВ 3 10 км слаб. ливневой дождь 10/10 840 м
[Cb cap]
+6.3 +6.1 99 +3 +3 1014.3 1012.4
15 12.01 В 4 4000 м слаб. ливневой дождь 10/10 1000 м
[Cb cap]
+6.1 +5.4 95 +2 +2 1014.0 1012.1 +12.0 18
18 12.01 В 4 4000 м слаб. ливневой дождь 10/8 1470 м
[Cb cap Ac und]
+6.1 +5.0 93 +2 +2 1011.9 1010.0
21 12.01 СВ 7 4000 м {ливн. осадки} 10/3 1500 м
[Cb cap Ac und]
+6.1 +4.0 86 +1 +1 1008.9 1007.0
00 13.01 СВ 3
{10}
4000 м слаб. ливневой дождь 10/10 1440 м
[Cb cap]
+8.1 +4.5 78 +6 +6 1008.4 1006.6
03 13.01 В 2 4000 м слаб. ливневой дождь 10/10 1410 м
[Cb cap]
+6.2 +5.5 95 +4 +4 1008.7 1006.8 +5.3 2
06 13.01 ЮВ 2 10 км слаб. ливневой дождь 10/10 480 м
[Cb cap]
+8.1 +6.1 87 +6 +6 1009.1 1007.3
09 13.01 В 7-11
{12}
10 км слаб. ливневой дождь 10/10 870 м
[Cb cap]
+7.4 +6.1 91 +3 +3 1008.6 1006.8
12 13.01 ЮВ 1
{15}
4000 м ливневой дождь 10/10 420 м
[Cb cap]
+7.2 +6.5 95 +6 +6 1009.7 1007.8
15 13.01 Ю 2 4000 м ливневой дождь 10/10 700 м
[Cb cap]
+6.3 +5.6 95 +4 +4 1009.4 1007.5 +8.6 33
18 13.01 В 4 4000 м слаб. ливневой дождь 10/10 960 м
[Cb cap]
+6.4 +4.8 89 +3 +3 1009.0 1007.1
21 13.01 СВ 4 4000 м слаб. ливневой дождь 10/10 800 м
[Cb cap]
+5.5 +4.8 95 +1 +1 1008.9 1007.0
00 14.01 В 3 4000 м слаб. ливневой дождь 10/10 960 м
[Cb cap]
+5.3 +4.6 95 +2 +2 1008.2 1006.3
03 14.01 СВ 3 4000 м слаб. ливневой дождь 10/10 1110 м
[Cb cap]
+5.0 +4.5 97 +1 +1 1007.1 1005.2 +4.7 9
06 14.01 СВ 3 10 км слаб. ливневой дождь 10/10 1080 м
[Cb cap]
+6.2 +4.8 91 +3 +3 1006.7 1004.9 +4.3
09 14.01 СВ 4 20 км {ливн. осадки} 10/3 1500 м
[Sc Ac und]
+7.7 +5.8 88 +4 +5 1005.8 1004.0
12 14.01 ЮВ 5 20 км {ливн. осадки} 10/0
[Ac und]
+11.7 +1.5 50 +10 +10 1005.2 1003.4
15 14.01 В 4
{10}
4000 м {ливн. осадки} 10/3 1500 м
[Cb cap Ac und]
+11.6 +0.4 46 +10 +10 1005.3 1003.5 +12.6 0.0
18 14.01 ЮВ 5
{10}
4000 м {ливн. осадки} 10/3 1500 м
[Cb cap Ac und]
+10.8 +0.6 49 +8 +8 1005.7 1003.9
21 14.01 В 4
{11}
4000 м 10/0
[Ac und]
+9.3 +0.6 55 +7 +7 1004.8 1003.0
00 15.01 ЮВ 5
{11}
4000 м 10/0
[Ac und]
+13.0 -1.7 36 +11 +11 1006.7 1004.9
03 15.01 В 5
{13}
4000 м в посл. час ливневой дождь 10/6 1500 м
[Cb cap Ac und]
+8.9 +3.8 70 +6 +6 1007.0 1005.2 +7.3 0.3
06 15.01 ЮВ 8-13
{14}
20 км {ливн. осадки} 10/3 1500 м
[Cb cap Ac trans Ci fib]
+10.4 +2.7 59 +7 +7 1007.6 1005.8
09 15.01 В 8-12
{15}
20 км 10/3 1500 м
[Cb cap Ac und]
+12.3 +1.9 49 +9 +10 1006.0 1004.2
12 15.01 В 8-12
{15}
20 км 10/3 1500 м
[Cb cap Ac und]
+12.3 +1.9 49 +9 +10 1006.0 1004.2
15 15.01 ЮВ 7-12
{15}
20 км 10/0
[Ac und]
+14.9 -0.7 34 +13 +13 1003.5 1001.7
18 15.01 В 9-16
{16}
4000 м 10/4 1500 м
[Sc Ac und]
+16.0 -0.9 31 +14 +14 1001.7 999.9 +16.0
21 15.01 В 6-11
{13}
4000 м {ливн. осадки} 10/3 1500 м
[Cb cap Ac und]
+16.4 +0.2 33 +15 +15 997.3 995.5
00 16.01 ЮВ 6-13
{20}
4000 м {ливн. осадки} 10/5 600 м
[Cb cap Ac und]
+17.2 -0.7 30 +16 +16 998.5 996.7
03 16.01 ЮВ 6-11
{13}
4000 м 10/4 1500 м
[Cb cap Ac und]
+15.4 +2.5 42 +14 +14 998.3 996.5 +13.9 0.0

 

Местоположение метеостанции Сочи аэропорт (Адлер) (Краснодарский край, Россия): широта 43.43 долгота 39.90 высота над уровнем моря 15 м.

В архиве по умолчанию представлена погода в Сочи аэропорт (Адлере) за последнюю неделю. Архивные данные за месяц целиком и за предыдущие месяцы, начиная с января 2011 года, Вы можете получить, выбрав интересующий диапазон дат из раскрывающегося списка и нажав кнопку "Ввод!".


*Определитесь, кто Вы:
робот инопланетянин человек

Внимание! Время в таблицах - всемирное. Для получения местного времени необходимо прибавить поправку, которая равна 3 ч.

Смотрите также архив погоды в соседних городах и на ближайших метеорологических станциях:

Погода в Имеретинке (Краснодарский край, Россия) (5 км)
Погода в Сочи (Краснодарский край, Россия) (20 км)
Погода в Кепше (Краснодарский край, Россия) (24 км)
Погода в Красной Поляне (Краснодарский край, Россия) (37 км)
Погода в Горная Карусель 1500 (Краснодарский край, Россия) (40 км)
Погода в Горная Карусель 1000 (Краснодарский край, Россия) (40 км)
Погода на Кордоне Лаура (Краснодарский край, Россия) (44 км)
Погода в Солох Ауле (Краснодарский край, Россия) (47 км)
Погода в Кичмае (Краснодарский край, Россия) (54 км)
Погода в Гузерипле (Адыгея, Россия) (66 км)

Пояснения к столбцам:

Ветер - указаны скорость ветра в м/с - средняя за 10 мин, порывы в срок и между сроками (в фигурных скобках) и направление, откуда дует ветер: С - северный, СВ - северо-восточный, В - восточный, ЮВ - юго-восточный, Ю - южный, ЮЗ - юго-западный, З - западный, СЗ - северо-западный.
Видимость - горизонтальная дальность видимости в метрах или километрах. При видимости от 1 до 10 км при отсутствии осадков обычно наблюдается дымка, при ухудшении видимости до 1 км и менее - туман. В сухую погоду видимость может ухудшаться дымом, пылью или мглою.
Явления - указаны атмосферные явления, наблюдавшиеся в срок или в последний час перед сроком; фигурными скобками обозначены явления, наблюдавшиеся между сроками (за 1-3 часа до срока); квадратными скобками обозначены град или гололедные отложения с указанием их диаметра в мм.
Облачность - указаны через наклонную черту общая и нижняя облачность в баллах и высота нижней границы облаков в метрах; квадратными скобками обозначены формы облаков: Ci - перистые, Cs - перисто-слоистые, Cc - перисто-кучевые, Ac - высококучевые, As - высокослоистые, Sc - слоисто-кучевые, Ns - слоисто-дождевые, Cu - кучевые, Cb - кучево-дождевые. Подробнее классификацию облаков см. в Атласе облаков (PDF).
T - Температура воздуха - температура, измеренная на высоте 2 м над землей.
Td - Температура точки росы - температура, при понижении до которой содержащийся в воздухе водяной пар достигнет насыщения.
f - Относительная влажность воздуха - влажноcть воздуха, измеренная на высоте 2 м над землей.
Te - Эффективная температура - температура, которую ощущает одетый по сезону человек в тени. Характеристика душности погоды. При расчете учитывается влияние влажности воздуха и скорости ветра на теплоощущения человека.
Tes - Эффективная температура на солнце - температура, которую ощущает человек, с поправкой на солнечный нагрев. Характеристика знойности погоды. Зависит от высоты солнца над горизонтом, облачности и скорости ветра. Ночью, в пасмурную погоду, а также при ветре 12 м/с и более поправка равна нулю.
P - Атмосферное давление - приведенное к уровню моря атмосферное давление.
Po - Атмосферное давление - измеренное на уровне метеостанции атмосферное давление.
Tmin - Минимальная температура - минимум температуры воздуха на высоте 2 м над землей.
Tmax - Максимальная температура - максимум температуры воздуха на высоте 2 м над землей.
R - Количество осадков - Количество выпавших осадков за период времени, мм. При наведении курсора мыши на число - период времени, за который выпало указанное количество осадков.
R24 - Количество осадков - Количество выпавших осадков за 24 часа, мм.
S - Снежный покров - Высота снежного покрова, см. При наведении курсора мыши на число - состояние снежного покрова и степень покрытия местности в баллах.